Voltar ao catálogo

THOR ABLESTAR DEB

AtivoLEO
NORAD 469·DEBRIS·🇺🇸 United States

Lançado Jun 29, 1961 de Cape Canaveral Space Force Station

Loading…

Próximas Passagens (próximas 24 horas)

TLE

AtualizadoSource: Space-Track

Época: Sep 14, 2026, 00:52 UTC

1 00469U 61015FF  26257.03665485  .00000582  00000-0  22894-3 0  9994
2 00469  66.8315 282.4898 0052758 131.5793 228.9850 14.35282878365766

Acompanhe THOR ABLESTAR DEB em tempo real com AllMySat

Download on the App Store